Precipitable_Water
0.80 0.79 0.76 0.74 0.76 0.80 0.81 0.81 0.82 0.83 0.84 0.84 0.80 0.77 0.74 0.76 0.84 0.93 0.93 1.01 0.95 0.95 1.00 1.17 1.25 1.33 1.25
0.65 0.64 0.65 0.70 0.72 0.70 0.71 0.74 0.76 0.81 0.81 0.80 0.75 0.72 0.70 0.70 0.74 0.87 0.93 1.04 1.11 1.12 1.13 1.20 1.13 1.17 1.17
0.58 0.64 0.65 0.68 0.65 0.67 0.66 0.69 0.73 0.76 0.77 0.75 0.71 0.70 0.66 0.66 0.69 0.83 0.88 0.94 1.01 1.07 1.12 1.11 1.11 1.10 1.10
0.59 0.60 0.61 0.64 0.64 0.60 0.60 0.65 0.66 0.69 0.71 0.70 0.69 0.69 0.63 0.60 0.61 0.77 0.86 0.92 0.99 0.97 1.05 1.06 1.10 1.06 1.01
0.55 0.55 0.56 0.57 0.57 0.62 0.60 0.61 0.63 0.64 0.62 0.61 0.65 0.64 0.55 0.50 0.50 0.63 0.77 0.85 0.89 0.99 0.99 1.03 1.01 0.96 0.97
0.54 0.52 0.56 0.59 0.62 0.61 0.60 0.57 0.54 0.65 0.61 0.59 0.62 0.56 0.47 0.41 0.39 0.42 0.58 0.71 0.71 0.70 0.76 0.80 0.88 0.93 0.84
0.57 0.58 0.60 0.63 0.64 0.61 0.60 0.59 0.58 0.62 0.62 0.57 0.57 0.46 0.40 0.37 0.36 0.33 0.36 0.48 0.56 0.62 0.67 0.76 0.81 0.80 0.76
0.62 0.64 0.66 0.67 0.67 0.66 0.64 0.63 0.62 0.62 0.60 0.48 0.46 0.34 0.35 0.37 0.38 0.39 0.38 0.35 0.40 0.45 0.47 0.50 0.52 0.51 0.52
0.63 0.63 0.67 0.70 0.69 0.67 0.62 0.60 0.56 0.53 0.52 0.45 0.39 0.34 0.34 0.35 0.39 0.41 0.39 0.36 0.39 0.37 0.37 0.37 0.36 0.37 0.36
0.55 0.58 0.64 0.67 0.69 0.69 0.67 0.58 0.47 0.41 0.44 0.40 0.36 0.33 0.29 0.35 0.38 0.40 0.41 0.39 0.44 0.43 0.43 0.43 0.41 0.39 0.38
0.51 0.52 0.52 0.52 0.59 0.63 0.61 0.53 0.42 0.38 0.37 0.36 0.33 0.31 0.35 0.37 0.39 0.45 0.47 0.46 0.46 0.47 0.47 0.46 0.45 0.44 0.42
0.39 0.41 0.42 0.40 0.40 0.40 0.40 0.40 0.41 0.39 0.38 0.36 0.34 0.38 0.38 0.37 0.40 0.49 0.52 0.53 0.51 0.49 0.49 0.49 0.48 0.47 0.46
0.34 0.35 0.37 0.39 0.39 0.36 0.36 0.36 0.37 0.38 0.39 0.39 0.40 0.40 0.41 0.40 0.44 0.46 0.44 0.47 0.49 0.49 0.50 0.49 0.47 0.48 0.45
0.37 0.38 0.40 0.36 0.35 0.37 0.35 0.36 0.38 0.39 0.42 0.42 0.43 0.42 0.39 0.40 0.46 0.46 0.48 0.44 0.48 0.48 0.48 0.49 0.50 0.49 0.48
0.43 0.40 0.37 0.37 0.36 0.39 0.39 0.39 0.38 0.40 0.39 0.42 0.44 0.42 0.41 0.43 0.39 0.38 0.40 0.39 0.40 0.40 0.43 0.43 0.45 0.45 0.44
0.41 0.41 0.38 0.36 0.34 0.36 0.37 0.37 0.38 0.41 0.40 0.41 0.37 0.35 0.35 0.36 0.38 0.34 0.35 0.36 0.38 0.37 0.37 0.36 0.37 0.41 0.42
0.40 0.38 0.38 0.38 0.36 0.34 0.34 0.34 0.34 0.38 0.39 0.40 0.37 0.34 0.30 0.29 0.35 0.37 0.33 0.34 0.36 0.35 0.35 0.36 0.34 0.36 0.39
Wind_Speed
30 29 29 28 27 26 26 26 25 25 24 24 24 24 23 22 20 18 16 14 16 17 19 19 21 23 23
27 27 26 25 25 25 25 24 24 24 23 23 24 24 21 20 18 15 12 9 10 14 17 19 21 22 19
27 26 25 26 25 25 25 24 23 23 22 22 22 21 19 17 15 13 10 7 8 11 14 17 19 19 18
26 25 25 25 25 25 25 25 24 23 23 22 22 20 17 15 15 14 13 11 9 11 14 17 17 17 17
26 26 26 25 25 24 24 24 24 24 23 22 20 18 16 15 14 15 15 15 14 15 14 15 15 16 17
26 26 26 25 24 23 23 22 22 22 22 20 18 17 15 14 14 15 16 18 18 19 19 19 18 18 18
26 26 25 24 24 23 22 21 21 20 18 17 16 16 15 15 15 15 16 18 19 19 20 20 20 20 20
26 25 25 24 23 22 22 20 20 19 17 16 15 14 14 14 14 15 15 15 16 17 18 19 20 20 20
24 24 24 23 22 21 20 20 19 17 16 15 14 13 13 14 14 14 14 14 15 15 17 18 18 19 19
23 22 21 21 21 21 20 19 17 16 16 15 14 13 13 13 13 13 13 14 15 15 16 17 17 17 18
22 21 21 20 20 20 19 19 17 16 15 14 14 13 12 12 13 14 15 15 16 16 16 17 18 18 18
21 20 19 19 19 18 18 17 16 16 15 15 14 14 14 13 13 14 16 16 16 16 17 17 18 19 19
19 19 19 18 17 17 16 16 16 15 16 16 16 15 15 14 13 13 14 16 16 17 17 18 18 19 19
19 18 18 18 17 17 16 16 16 16 16 16 17 17 16 17 17 16 15 14 16 18 18 19 19 20 21
19 19 18 18 18 17 17 17 17 17 17 18 19 19 19 18 19 19 18 18 18 18 19 20 21 22 22
19 19 18 18 17 17 18 18 18 18 18 18 18 18 19 20 22 20 21 21 21 21 22 22 23 23 24
19 19 18 18 18 18 18 18 18 19 19 19 19 19 19 20 20 22 22 22 23 24 25 25 25 25 25
Wind_Direction
294 295 295 295 294 293 293 292 292 291 290 290 292 294 292 287 287 291 286 274 249 235 223 217 209 199 198
294 294 294 294 293 293 293 293 291 291 289 290 292 294 290 285 280 281 284 275 237 216 208 200 202 204 213
291 292 292 292 293 293 293 292 290 290 290 292 292 293 288 280 272 266 263 249 212 202 199 197 202 203 211
290 290 291 291 292 292 291 289 287 287 288 289 290 289 283 275 264 253 242 228 219 212 204 198 201 210 217
288 289 289 289 290 291 290 289 287 285 285 285 284 283 277 271 261 249 238 232 228 215 210 203 212 217 220
288 288 289 288 288 289 289 290 289 284 282 280 277 274 270 266 258 249 241 237 237 234 234 230 227 225 227
287 288 288 287 286 286 285 287 288 288 280 275 273 269 265 263 258 249 249 244 239 238 238 233 232 233 235
285 286 285 285 285 284 283 282 285 282 276 272 271 267 263 260 255 254 247 239 238 237 235 233 231 233 233
286 284 283 282 282 282 281 279 280 276 270 267 266 263 262 258 255 256 240 234 233 233 232 231 231 231 231
284 284 282 281 279 279 279 275 273 272 267 258 260 262 262 254 250 245 236 235 237 238 233 232 230 230 230
281 281 281 280 278 277 276 270 267 266 262 255 258 255 254 256 250 243 242 244 242 238 236 234 233 233 234
279 279 278 279 278 276 273 268 263 260 256 252 255 252 252 254 252 250 247 243 239 237 236 236 236 237 238
277 277 277 277 275 273 269 264 261 258 253 252 254 255 253 250 252 252 246 244 240 239 237 239 240 240 243
276 275 275 273 271 269 266 262 259 258 255 253 254 255 253 251 252 255 250 247 243 241 242 243 244 246 249
274 273 272 270 268 266 264 261 259 258 258 257 256 256 254 254 255 254 251 249 248 248 247 248 249 252 254
271 270 269 268 266 265 264 261 260 259 257 258 258 257 257 256 254 255 253 252 252 251 251 253 255 255 257
269 269 267 267 264 264 263 262 261 260 260 260 258 257 257 260 261 256 255 255 255 254 255 255 257 259 259